STARLINK-3582, 51873

Orbit data source: Space-Track

STARLINK-3582, 51873 is a payload satellite owned by SpaceX/Seattle (US) in LEO that was launched on Thu, 03 Mar 2022 UTC via an FALCON 9 launch vehicle from the Air Force Eastern Test Range (AFETR). Payload-class satellites include a variety of spacecraft equipped with specific instruments for various scientific and technological missions. These include communications satellites like Starlink; space stations such as the ISS; scientific satellites like the Hubble; Earth observation satellites from companies like Planet Labs, Umbra, and HawkEye 360; GPS; miniature CubeSats for education and research; and military/defense satellites.

Loading next visibility...
Identifier
51873, 2022-022X
Orbit
LEO
Country
Flag of USUS
Related business
Manufacturer
SpaceX/Seattle
Mission
Partially operational Commercial Communications
Bus & Motor
STARLINK, Unknown motor
Mass
297 kg wet, ~275 kg dry
Launch date (UTC)
2022-03-03 (4 years ago)
Launch vehicle
FALCON 9
Launch site
Air Force Eastern Test Range (AFETR)
Object type
Payload
Rocket body
Debris
Shape & HBR
Box + 1 Pan, 10.1 m
Radar Cross Section
13.562 m², Large (>1 m²)

Expand to show TLE details & history
Last TLE update: 2 days ago

TLE from 2 days ago
0 STARLINK-3582
1 51873U 22022X   26171.40614722  .00024768  00000-0  10588-2 0  9996
2 51873  53.2030 256.0877 0001577 217.1888 142.9001 15.22728504238791
Epoch: 2026-06-20T09:44Z
TLE epoch observation values (Epoch: 2026-06-20T09:44:51.119Z)
Latitude
-0.00004°
Longitude
-158.74656°
Altitude
499.381 km
Speed
7.616 km/s
True Right ascension
17h 04m 21s
True Declination
0° 00' 00"
Sunlit
Object was in full shadow at epoch
Visualization orbit readout
Latitude
Unknown
Longitude
Unknown
Altitude
Unknown
Speed
Unknown
Apparent Right ascension
Unknown
Apparent Declination
Unknown
Sunlit
N/A
Visualization observer readout
Local Sidereal Time
21:31:43
Azimuth
Unknown
Elevation
Unknown
Doppler factor
Unknown
Orbital elements
Apogee altitude
498.948 km
Perigee altitude
496.779 km
Semi-major axis
6,876 km
Eccentricity
0.00016
Inclination
53.203°
RAAN
256.0877°
Arg. of periapsis
217.1888°
True anomaly
142.911°
Mean anomaly
142.9001°
Eccentric anomaly
142.90555°
Mean motion
3.80662 °/min
Orbital period
94.57 mins
BSTAR
0.0010588
Loading maneuver chart data...
Computing Atmospheric mass density...
Loading historical data...
Loading historical data...
Loading historical data...
Loading historical data...
Loading historical data...
Loading historical data...
Loading historical data...

Documentation

Showing up to 5 results
|